Weather in Cotia

Brazil     23°36′28″S   46°55′41″W
temp.,
°C
wind,
m/s
gust,
m/s
humid.,
%
clouds,
%
prec.,
mm/h
press.,
hPa
HPBL,
m
5 march, fri
fri500:00+19nw41295100 0.0 1011704
03:00+19nw51293100 0.0 1010713
06:00+19nw41392100 0.0 1009840
09:00+20nw51188100 0.2 1010833
12:00+24nw8147063 0.1 10091385
15:00+24nw6127757 0.9 10071304
18:00+21nw41093100 2.7 1006706
21:00+20nw31095100 3.3 1008524
6 march, sat
sat600:00+19nw299897 0.3 1008425
03:00+19nw3109799 0.5 1007444
06:00+19nw2798100 0.4 1008385
09:00+19nw3796100 0.8 1010428
12:00+22nw3690100 1.7 1010592
15:00+21nw3794100 6.1 1009480
18:00+20nw2696100 1.8 1009433
21:00+18nw1297100 2.6 1011101
7 march, sun
sun700:00+17nw1197100 0.1 101264
03:00+18ne0095100 0.1 101152
06:00+17nw0196100 0.1 101144
09:00+22nw128695 1.1 1013422
12:00+23w2282100 3.1 1012588
15:00+23sse2385100 8.0 1011576
18:00+20se3790100 4.0 1011343
21:00+19se2792100 4.5 1013323
8 march, mon
mon800:00+19ese269399 0.0 1013284
03:00+18ese2493100 0.0 1012145
06:00+18ese1394100 0.0 1013107
09:00+22e238092 0.1 1014623
12:00+24ssw017956 5.0 1013701
15:00+23s248430 13.7 1011589
18:00+20sse378852 2.3 1011377
21:00+18se269276 2.6 1013230
9 march, tue
tue900:00+18se249349 0.0 1012138
03:00+18se239243 0.0 1010101
06:00+17ese129516 0.0 101174
09:00+22e127323 0.0 1012586
12:00+24w117560 1.4 1011823
15:00+24wsw228040 4.4 1009562
18:00+21sse24890 3.1 1009191
21:00+19se24939 4.9 1010153